AVA11 MSLP-MNMG

Flight info

Callsign AVA11
Flight time 0h 36m
Altitude 23000
Route UMIPI1G UMIPI UA317 URPOS
Aircraft A320/M-SDE3FGHIRWY/LB1

Departure

Time 2026-05-04 06:50
Airport El Salvador International Airport Saint Óscar Arnulfo Romero y Galdámez (MSLP)

Arrival

Time 2026-05-04 07:27
Airport Augusto C. Sandino (Managua) International Airport (MNMG)
Time Latitude Longitude Altitude Speed Heading
2026-05-04 06:22 13.44328 -89.05956 92 ft 0 kts 340°
2026-05-04 06:44 13.44262 -89.05930 91 ft 4 kts 315°
2026-05-04 06:44 13.44252 -89.05909 92 ft 4 kts 264°
2026-05-04 06:44 13.44258 -89.05884 93 ft 4 kts 250°
2026-05-04 06:45 13.44262 -89.05873 92 ft 0 kts 250°
2026-05-04 06:46 13.44262 -89.05874 92 ft 1 kts 250°
2026-05-04 06:48 13.43903 -89.06629 93 ft 26 kts 250°
2026-05-04 06:48 13.43840 -89.06806 93 ft 27 kts 250°
2026-05-04 06:49 13.43781 -89.06970 93 ft 18 kts 235°
2026-05-04 06:50 13.44274 -89.02704 1291 ft 181 kts 123°
2026-05-04 06:51 13.43315 -89.01873 1958 ft 186 kts 157°
2026-05-04 06:51 13.41982 -89.01763 2279 ft 207 kts 194°
2026-05-04 06:51 13.40522 -89.02222 2528 ft 231 kts 188°
2026-05-04 06:51 13.38893 -89.01956 2871 ft 252 kts 149°
2026-05-04 06:52 13.37671 -89.00633 3369 ft 265 kts 115°
2026-05-04 06:52 13.37061 -88.98835 4151 ft 269 kts 103°
2026-05-04 06:52 13.36629 -88.96952 5000 ft 272 kts 102°
2026-05-04 06:52 13.36203 -88.95052 5835 ft 274 kts 102°
2026-05-04 06:53 13.35776 -88.93135 6636 ft 276 kts 102°
2026-05-04 06:53 13.35224 -88.91232 7410 ft 280 kts 109°
2026-05-04 06:53 13.34485 -88.89366 8174 ft 284 kts 112°
2026-05-04 06:53 13.33666 -88.87505 8916 ft 288 kts 113°
2026-05-04 06:54 13.32822 -88.85631 9634 ft 291 kts 113°
2026-05-04 06:54 13.31974 -88.83733 10296 ft 297 kts 112°
2026-05-04 06:54 13.31095 -88.81726 10477 ft 320 kts 112°
2026-05-04 06:54 13.30175 -88.79578 10830 ft 334 kts 111°
2026-05-04 06:55 13.29247 -88.77377 11451 ft 338 kts 111°
2026-05-04 06:55 13.28316 -88.75146 12119 ft 342 kts 110°
2026-05-04 06:55 13.27375 -88.72895 12793 ft 344 kts 110°
2026-05-04 06:55 13.26424 -88.70627 13439 ft 348 kts 111°
2026-05-04 06:56 13.25460 -88.68338 14063 ft 351 kts 111°
2026-05-04 06:57 13.18466 -88.51710 17976 ft 374 kts 112°
2026-05-04 06:58 13.17430 -88.49252 18494 ft 378 kts 112°
2026-05-04 06:58 13.16378 -88.46758 18993 ft 381 kts 112°
2026-05-04 06:58 13.15317 -88.44253 19476 ft 385 kts 113°
2026-05-04 06:58 13.14224 -88.41731 19943 ft 388 kts 113°
2026-05-04 06:59 13.13105 -88.39195 20411 ft 391 kts 114°
2026-05-04 06:59 13.11970 -88.36642 20853 ft 395 kts 114°
2026-05-04 06:59 13.10823 -88.34064 21298 ft 399 kts 114°
2026-05-04 06:59 13.09672 -88.31467 21731 ft 402 kts 114°
2026-05-04 07:01 13.01582 -88.13102 22989 ft 396 kts 114°
2026-05-04 07:01 13.00450 -88.10531 22989 ft 396 kts 114°
2026-05-04 07:02 12.99317 -88.07962 22989 ft 396 kts 114°
2026-05-04 07:02 12.98182 -88.05391 22997 ft 396 kts 114°
2026-05-04 07:02 12.97045 -88.02816 22999 ft 396 kts 114°
2026-05-04 07:02 12.95908 -88.00245 22999 ft 396 kts 114°
2026-05-04 07:03 12.94772 -87.97674 22998 ft 396 kts 114°
2026-05-04 07:03 12.93634 -87.95102 22998 ft 396 kts 114°
2026-05-04 07:03 12.92498 -87.92532 22999 ft 396 kts 114°
2026-05-04 07:03 12.91360 -87.89959 23001 ft 396 kts 114°
2026-05-04 07:04 12.90236 -87.87423 23002 ft 396 kts 114°
2026-05-04 07:04 12.89097 -87.84854 23002 ft 396 kts 114°
2026-05-04 07:04 12.87962 -87.82287 23002 ft 396 kts 114°
2026-05-04 07:04 12.86829 -87.79716 23010 ft 396 kts 114°
2026-05-04 07:05 12.85689 -87.77143 23052 ft 397 kts 114°
2026-05-04 07:05 12.84544 -87.74572 23062 ft 397 kts 114°
2026-05-04 07:05 12.83392 -87.71997 23069 ft 397 kts 115°
2026-05-04 07:05 12.82240 -87.69427 23075 ft 397 kts 114°
2026-05-04 07:06 12.79949 -87.64281 23079 ft 396 kts 114°
2026-05-04 07:06 12.78805 -87.61718 23079 ft 396 kts 114°
2026-05-04 07:06 12.77659 -87.59153 23079 ft 396 kts 114°
2026-05-04 07:07 12.76512 -87.56590 23081 ft 395 kts 114°
2026-05-04 07:08 12.68500 -87.38668 23092 ft 396 kts 114°
2026-05-04 07:09 12.67352 -87.36103 23082 ft 396 kts 114°
2026-05-04 07:09 12.66202 -87.33544 23002 ft 394 kts 115°
2026-05-04 07:09 12.65068 -87.31025 22741 ft 384 kts 115°
2026-05-04 07:09 12.63964 -87.28571 22495 ft 376 kts 114°
2026-05-04 07:10 12.62882 -87.26158 22245 ft 371 kts 114°
2026-05-04 07:10 12.61812 -87.23763 21998 ft 369 kts 114°
2026-05-04 07:12 12.54335 -87.08081 19252 ft 320 kts 123°
2026-05-04 07:12 12.53118 -87.06225 18862 ft 309 kts 123°
2026-05-04 07:12 12.51943 -87.04432 18507 ft 308 kts 123°
2026-05-04 07:12 12.50734 -87.02585 18108 ft 308 kts 123°
2026-05-04 07:13 12.49558 -87.00788 17725 ft 308 kts 123°
2026-05-04 07:13 12.48367 -86.98970 17339 ft 308 kts 123°
2026-05-04 07:13 12.47176 -86.97153 16953 ft 307 kts 123°
2026-05-04 07:14 12.42417 -86.89880 15420 ft 308 kts 122°
2026-05-04 07:14 12.41224 -86.88060 15033 ft 308 kts 122°
2026-05-04 07:15 12.40029 -86.86239 14645 ft 308 kts 122°
2026-05-04 07:15 12.38833 -86.84419 14259 ft 308 kts 122°
2026-05-04 07:15 12.37640 -86.82598 13869 ft 309 kts 121°
2026-05-04 07:15 12.36447 -86.80775 13476 ft 308 kts 121°
2026-05-04 07:16 12.35255 -86.78957 13073 ft 307 kts 121°
2026-05-04 07:16 12.34069 -86.77153 12710 ft 305 kts 121°
2026-05-04 07:16 12.32890 -86.75359 12373 ft 302 kts 121°
2026-05-04 07:16 12.31717 -86.73573 12028 ft 300 kts 121°
2026-05-04 07:17 12.30552 -86.71793 11606 ft 300 kts 120°
2026-05-04 07:17 12.29400 -86.70038 11290 ft 297 kts 121°
2026-05-04 07:17 12.28236 -86.68297 10871 ft 296 kts 121°
2026-05-04 07:17 12.27075 -86.66577 10311 ft 290 kts 121°
2026-05-04 07:18 12.25948 -86.64912 9897 ft 279 kts 121°
2026-05-04 07:18 12.24862 -86.63308 9508 ft 271 kts 121°
2026-05-04 07:18 12.23803 -86.61739 9132 ft 266 kts 121°
2026-05-04 07:18 12.22754 -86.60182 8743 ft 267 kts 121°
2026-05-04 07:19 12.21712 -86.58627 8342 ft 263 kts 121°
2026-05-04 07:19 12.20684 -86.57096 7974 ft 259 kts 121°
2026-05-04 07:19 12.19663 -86.55583 7563 ft 256 kts 121°
2026-05-04 07:19 12.18709 -86.54068 7170 ft 250 kts 113°
2026-05-04 07:20 12.18140 -86.52422 6784 ft 243 kts 98°
2026-05-04 07:20 12.17908 -86.50754 6562 ft 233 kts 93°
2026-05-04 07:20 12.17740 -86.49115 6296 ft 231 kts 93°
2026-05-04 07:20 12.17566 -86.47487 5990 ft 230 kts 94°
2026-05-04 07:22 12.16363 -86.36633 3885 ft 204 kts 94°
2026-05-04 07:22 12.16206 -86.35225 3634 ft 199 kts 94°
2026-05-04 07:23 12.16055 -86.33866 3354 ft 188 kts 93°
2026-05-04 07:23 12.15911 -86.32571 3089 ft 180 kts 94°
2026-05-04 07:23 12.15774 -86.31336 2851 ft 171 kts 94°
2026-05-04 07:23 12.15644 -86.30175 2633 ft 158 kts 94°
2026-05-04 07:24 12.15524 -86.29092 2415 ft 149 kts 95°
2026-05-04 07:24 12.15411 -86.28069 2219 ft 142 kts 96°
2026-05-04 07:24 12.15300 -86.27074 2024 ft 140 kts 96°
2026-05-04 07:24 12.15191 -86.26094 1835 ft 138 kts 96°
2026-05-04 07:25 12.15081 -86.25119 1647 ft 138 kts 97°
2026-05-04 07:26 12.14322 -86.18275 311 ft 139 kts 97°
2026-05-04 07:27 12.14213 -86.17326 201 ft 122 kts 96°
2026-05-04 07:27 12.14136 -86.16626 204 ft 74 kts 97°
2026-05-04 07:27 12.14085 -86.16254 202 ft 39 kts 100°